Content
SEND FEEDBACK

Daily
Averages
Monthly
Summary
United States of America

BARTOW, FLORIDA


Home > North America > United States > Florida
Elevation: 130 feet     Latitude: 27 56N     Longitude: 081 47W

WEATHER
 
SELECT A DAY
Number of Records: 172,767;   Date Range: 1/3/95 - 7/28/14
 
SHARE

PRINT THIS DATA

[ ← Previous Day ]
WEATHER ALMANAC - JANUARY 3, 2013
[ Next Day → ]
[ °C ]   °F
Weather ElementAverageHighLow
Temperature65.3 °F75.2 °F (1:35 pm)57.2 °F (10:35 pm)
Dewpoint38.1 °F66.2 °F (12:35 am) (7:00 pm)
Humidity87 %100 % (12:35 am)61 % (1:35 pm)
Barometer30.11 in30.20 in (10:35 pm)30.06 in (4:35 am)
Wind Speed3.8 mph11.5 mph (8:15 pm)
Weather ElementAverage
Visibility3.8 mi
Wind DirectionENE (76.4 °)

Weather ElementTotal
Precipitation0.04 in
Cooling Degree Days1.2 (Base 65)
Growing Degree Days16.2 (Base 50)
Averaged from 67 records on January 3, 2013
WEATHER CONDITIONS BREAKOUT
WIND DIRECTION BREAKOUT
WEATHER BY HOUR - JANUARY 3, 2013
[ °C ]   °F
Local TimeTemperatureDewpointHumidityBarometerVisibilityWind DirectionWind SpeedGust SpeedPrecipitationEventsConditions
12:35 AM66.2 °F66.2 °F100 %30.08 in2.5 miNNW (330°)4.6 mphOvercast
12:55 AM66.2 °F66.2 °F100 %30.08 in4.0 miNNW (340°)3.5 mphOvercast
1:15 AM66.2 °F66.2 °F100 %30.08 in4.0 miCalmOvercast
1:35 AM66.2 °F66.2 °F100 %30.08 in4.0 miCalmOvercast
1:55 AM64.4 °F64.4 °F100 %30.07 in2.5 miWNW (290°)3.5 mphOvercast
2:15 AM64.4 °F64.4 °F100 %30.07 in1.2 miCalmOvercast
2:55 AM64.4 °F0.0 °F30.07 in0.2 miCalmFogFog
3:15 AM64.4 °F0.0 °F30.07 in0.2 miCalmFogFog
3:35 AM64.4 °F0.0 °F30.07 in0.2 miCalmFogFog
3:55 AM64.4 °F0.0 °F30.07 in0.2 miCalmFogFog
4:15 AM64.4 °F0.0 °F30.07 in0.2 miCalmFogFog
4:35 AM62.6 °F0.0 °F30.06 in0.2 miCalmFogFog
4:55 AM62.6 °F0.0 °F30.06 in0.2 miCalmFogFog
5:15 AM62.6 °F0.0 °F30.06 in0.2 miCalmFogFog
5:35 AM62.6 °F0.0 °F30.06 in0.2 miCalmFogFog
5:55 AM62.6 °F0.0 °F30.07 in0.2 miCalmFogFog
6:15 AM62.6 °F0.0 °F30.08 in0.2 miCalmFogFog
6:35 AM60.8 °F0.0 °F30.08 in0.2 miCalmFogFog
7:15 AM60.8 °F0.0 °F30.10 in0.2 miCalmFogFog
7:35 AM60.8 °F0.0 °F30.10 in0.2 miCalmFogFog
7:55 AM60.8 °F0.0 °F30.11 in0.2 miCalmFogFog
8:15 AM60.8 °F0.0 °F30.12 in0.2 miCalmFogFog
8:35 AM60.8 °F0.0 °F30.12 in0.2 miCalmFogFog
8:55 AM62.6 °F0.0 °F30.13 in0.2 miNW (320°)3.5 mphFogFog
9:15 AM62.6 °F0.0 °F30.13 in0.2 miCalmFogFog
9:35 AM62.6 °F0.0 °F30.13 in0.5 miCalmFogFog
9:55 AM62.6 °F0.0 °F30.13 in0.2 miCalmFogFog
10:35 AM64.4 °F0.0 °F30.13 in1.5 miSSE (160°)3.5 mphOvercast
10:55 AM64.4 °F0.0 °F30.14 in3.0 miCalmOvercast
11:15 AM64.4 °F0.0 °F30.13 in5.0 miCalmHaze
11:35 AM64.4 °F0.0 °F30.12 in5.0 miCalmHaze
11:55 AM66.2 °F0.0 °F30.11 in5.0 miESE (110°)4.6 mphHaze
12:15 PM69.8 °F64.4 °F83 %30.10 in7.0 miCalmMostly Cloudy
12:35 PM71.6 °F64.4 °F78 %30.09 in7.0 miEast (100°)4.6 mphMostly Cloudy
12:55 PM73.4 °F62.6 °F69 %30.07 in7.0 miEast (100°)4.6 mphScattered Clouds
1:15 PM73.4 °F60.8 °F65 %30.06 in8.0 miSE (140°)5.8 mphScattered Clouds
1:35 PM75.2 °F60.8 °F61 %30.06 in9.0 miCalmPartly Cloudy
1:55 PM75.2 °F60.8 °F61 %30.06 in9.0 miCalmMostly Cloudy
2:35 PM73.4 °F62.6 °F69 %30.06 in6.0 miNorth (360°)5.8 mphHaze
2:55 PM73.4 °F62.6 °F69 %30.06 in7.0 miNorth (10°)3.5 mphOvercast
3:15 PM73.4 °F62.6 °F69 %30.06 in7.0 miNNE (20°)6.9 mphOvercast
3:35 PM73.4 °F62.6 °F69 %30.06 in7.0 miNorth (360°)8.1 mphMostly Cloudy
3:55 PM73.4 °F62.6 °F69 %30.07 in9.0 miNorth (10°)6.9 mphOvercast
4:15 PM71.6 °F62.6 °F73 %30.07 in8.0 miNNE (20°)8.1 mphOvercast
4:35 PM71.6 °F62.6 °F73 %30.07 in7.0 miNNE (20°)6.9 mphOvercast
4:55 PM71.6 °F62.6 °F73 %30.07 in8.0 miNorth (10°)5.8 mphOvercast
5:15 PM71.6 °F62.6 °F73 %30.09 in8.0 miNNE (20°)4.6 mphOvercast
5:35 PM71.6 °F62.6 °F73 %30.09 in7.0 miNorth (10°)6.9 mphOvercast
5:55 PM69.8 °F62.6 °F78 %30.10 in9.0 miNorth (360°)8.1 mphOvercast
6:15 PM69.8 °F62.6 °F78 %30.11 in8.0 miNNE (20°)10.4 mphOvercast
6:35 PM68.0 °F64.4 °F88 %30.12 in5.0 miNorth (360°)8.1 mphRainLight Rain
6:55 PM66.2 °F64.4 °F94 %30.13 in3.0 miNorth (10°)6.9 mphLight Drizzle
7:15 PM64.4 °F64.4 °F100 %30.14 in4.0 miNorth (360°)8.1 mphRainLight Rain
7:35 PM64.4 °F64.4 °F100 %30.15 in2.5 miNorth (360°)9.2 mphRainLight Rain
7:55 PM62.6 °F62.6 °F100 %30.16 in2.5 miNorth (360°)5.8 mph0.04 inRainLight Rain
8:15 PM62.6 °F62.6 °F100 %30.17 in5.0 miNorth (10°)11.5 mphOvercast
8:35 PM60.8 °F60.8 °F100 %30.17 in4.0 miNorth (360°)11.5 mphRainLight Rain
8:55 PM60.8 °F60.8 °F100 %30.18 in3.0 miNorth (10°)8.1 mphRainLight Rain
9:15 PM60.8 °F60.8 °F100 %30.19 in3.0 miNorth (10°)6.9 mphLight Drizzle
9:35 PM60.8 °F60.8 °F100 %30.19 in2.5 miNNE (30°)6.9 mphLight Drizzle
9:55 PM60.8 °F60.8 °F100 %30.19 in2.5 miNorth (10°)6.9 mphRainLight Rain
10:15 PM59.0 °F59.0 °F100 %30.19 in5.0 miNNE (20°)8.1 mphMostly Cloudy
10:35 PM57.2 °F57.2 °F100 %30.20 in5.0 miNNE (30°)5.8 mphOvercast
10:55 PM59.0 °F59.0 °F100 %30.19 in4.0 miNorth (10°)5.8 mphOvercast
11:15 PM57.2 °F57.2 °F100 %30.19 in6.0 miNNE (20°)9.2 mphOvercast
11:35 PM57.2 °F57.2 °F100 %30.18 in9.0 miNNE (20°)5.8 mphOvercast
11:55 PM57.2 °F57.2 °F100 %30.18 in8.0 miNNE (30°)6.9 mphOvercast
Hourly data recorded from KBOW, located miles away from Bartow, Florida







STORIES FROM OUR PARTNERS